TimeEDT,TemperatureF,Dew PointF,Humidity,Sea Level PressureIn,VisibilityMPH,Wind Direction,Wind SpeedMPH,Gust SpeedMPH,PrecipitationIn,Events,Conditions,WindDirDegrees,DateUTC
12:15 AM,48.2,44.6,87,30.06,10.0,Calm,Calm,-,N/A,,Clear,0,2013-07-25 04:15:00
12:35 AM,46.4,42.8,87,30.07,10.0,East,3.5,-,N/A,,Clear,100,2013-07-25 04:35:00
12:55 AM,46.4,42.8,87,30.06,10.0,ENE,4.6,-,N/A,,Clear,70,2013-07-25 04:55:00
1:15 AM,44.6,41.0,87,30.06,10.0,East,3.5,-,N/A,,Clear,90,2013-07-25 05:15:00
1:35 AM,46.4,42.8,87,30.06,10.0,East,5.8,-,N/A,,Clear,100,2013-07-25 05:35:00
1:55 AM,46.4,42.8,87,30.06,10.0,East,3.5,-,N/A,,Clear,90,2013-07-25 05:55:00
2:15 AM,46.4,42.8,87,30.06,4.0,East,3.5,-,N/A,,Clear,80,2013-07-25 06:15:00
2:35 AM,46.4,42.8,87,30.06,8.0,Calm,Calm,-,N/A,,Clear,0,2013-07-25 06:35:00
2:55 AM,44.6,42.8,93,30.06,9.0,Calm,Calm,-,N/A,,Clear,0,2013-07-25 06:55:00
3:15 AM,44.6,41.0,87,30.06,9.0,Calm,Calm,-,N/A,,Clear,0,2013-07-25 07:15:00
3:35 AM,42.8,39.2,87,30.06,1.8,Calm,Calm,-,N/A,,Clear,0,2013-07-25 07:35:00
3:55 AM,42.8,39.2,87,30.06,10.0,East,3.5,-,N/A,,Clear,80,2013-07-25 07:55:00
4:15 AM,42.8,39.2,87,30.06,10.0,East,4.6,-,N/A,,Scattered Clouds,90,2013-07-25 08:15:00
4:35 AM,42.8,41.0,93,30.05,10.0,East,4.6,-,N/A,,Scattered Clouds,80,2013-07-25 08:35:00
4:55 AM,42.8,39.2,87,30.06,10.0,ESE,3.5,-,N/A,,Clear,110,2013-07-25 08:55:00
5:15 AM,42.8,39.2,87,30.07,10.0,East,3.5,-,N/A,,Clear,100,2013-07-25 09:15:00
5:35 AM,42.8,39.2,87,30.07,1.2,ESE,3.5,-,N/A,,Clear,110,2013-07-25 09:35:00
5:55 AM,42.8,39.2,87,30.07,10.0,East,4.6,-,N/A,,Clear,100,2013-07-25 09:55:00
6:15 AM,44.6,41.0,87,30.08,10.0,ESE,4.6,-,N/A,,Clear,110,2013-07-25 10:15:00
6:35 AM,42.8,39.2,87,30.08,10.0,Calm,Calm,-,N/A,,Clear,0,2013-07-25 10:35:00
6:55 AM,42.8,39.2,87,30.08,10.0,Calm,Calm,-,N/A,,Clear,0,2013-07-25 10:55:00
7:15 AM,42.8,41.0,93,30.09,10.0,East,4.6,-,N/A,,Clear,100,2013-07-25 11:15:00
7:35 AM,46.4,42.8,87,30.09,10.0,East,4.6,-,N/A,,Clear,90,2013-07-25 11:35:00
7:55 AM,46.4,44.6,93,30.10,10.0,East,3.5,-,N/A,,Clear,90,2013-07-25 11:55:00
8:15 AM,48.2,44.6,87,30.10,10.0,East,3.5,-,N/A,,Clear,90,2013-07-25 12:15:00
8:35 AM,51.8,46.4,82,30.10,10.0,East,4.6,-,N/A,,Clear,100,2013-07-25 12:35:00
8:55 AM,55.4,46.4,72,30.10,10.0,ESE,4.6,-,N/A,,Clear,110,2013-07-25 12:55:00
9:15 AM,57.2,48.2,72,30.10,10.0,Calm,Calm,-,N/A,,Clear,0,2013-07-25 13:15:00
9:35 AM,60.8,50.0,68,30.10,10.0,Calm,Calm,-,N/A,,Clear,0,2013-07-25 13:35:00
9:55 AM,64.4,50.0,59,30.09,10.0,South,5.8,-,N/A,,Clear,180,2013-07-25 13:55:00
10:15 AM,66.2,48.2,52,30.09,10.0,South,6.9,-,N/A,,Clear,170,2013-07-25 14:15:00
10:35 AM,69.8,48.2,46,30.09,10.0,South,5.8,-,N/A,,Clear,180,2013-07-25 14:35:00
10:55 AM,69.8,48.2,46,30.09,10.0,South,8.1,-,N/A,,Clear,190,2013-07-25 14:55:00
11:15 AM,71.6,50.0,46,30.09,10.0,SW,4.6,-,N/A,,Clear,230,2013-07-25 15:15:00
11:35 AM,71.6,48.2,43,30.10,10.0,West,11.5,-,N/A,,Clear,270,2013-07-25 15:35:00
11:55 AM,71.6,48.2,43,30.10,10.0,West,10.4,16.1,N/A,,Clear,260,2013-07-25 15:55:00
12:15 PM,73.4,48.2,41,30.10,1.8,WSW,11.5,18.4,N/A,,Clear,250,2013-07-25 16:15:00
12:35 PM,71.6,48.2,43,30.10,10.0,West,15.0,20.7,N/A,,Clear,270,2013-07-25 16:35:00
12:55 PM,73.4,50.0,44,30.10,10.0,WSW,16.1,-,N/A,,Clear,250,2013-07-25 16:55:00
1:15 PM,73.4,51.8,47,30.10,10.0,WSW,12.7,17.3,N/A,,Clear,250,2013-07-25 17:15:00
1:35 PM,73.4,51.8,47,30.09,10.0,West,12.7,-,N/A,,Clear,270,2013-07-25 17:35:00
1:55 PM,73.4,51.8,47,30.07,10.0,WSW,12.7,19.6,N/A,,Clear,250,2013-07-25 17:55:00
2:15 PM,73.4,51.8,47,30.07,9.0,West,13.8,-,N/A,,Clear,260,2013-07-25 18:15:00
2:35 PM,75.2,51.8,44,30.07,10.0,West,15.0,-,N/A,,Clear,270,2013-07-25 18:35:00
2:55 PM,75.2,51.8,44,30.07,10.0,West,17.3,21.9,N/A,,Clear,260,2013-07-25 18:55:00
3:15 PM,73.4,50.0,44,30.07,10.0,West,15.0,21.9,N/A,,Clear,260,2013-07-25 19:15:00
3:35 PM,73.4,51.8,47,30.07,10.0,West,16.1,20.7,N/A,,Clear,260,2013-07-25 19:35:00
3:55 PM,73.4,51.8,47,30.07,10.0,WSW,13.8,19.6,N/A,,Clear,250,2013-07-25 19:55:00
4:15 PM,75.2,51.8,44,30.06,10.0,West,10.4,16.1,N/A,,Clear,260,2013-07-25 20:15:00
4:35 PM,75.2,51.8,44,30.07,10.0,SSW,10.4,-,N/A,,Clear,210,2013-07-25 20:35:00
4:55 PM,75.2,50.0,41,30.05,10.0,SSW,8.1,-,N/A,,Clear,200,2013-07-25 20:55:00
5:15 PM,75.2,48.2,38,30.05,10.0,SW,10.4,-,N/A,,Clear,220,2013-07-25 21:15:00
5:35 PM,75.2,46.4,36,30.05,10.0,SSW,11.5,-,N/A,,Clear,200,2013-07-25 21:35:00
5:55 PM,73.4,46.4,38,30.05,10.0,SW,11.5,18.4,N/A,,Clear,230,2013-07-25 21:55:00
6:15 PM,73.4,46.4,38,30.05,10.0,SSW,11.5,16.1,N/A,,Clear,200,2013-07-25 22:15:00
6:35 PM,73.4,46.4,38,30.04,10.0,SSW,5.8,-,N/A,,Clear,200,2013-07-25 22:35:00
6:55 PM,73.4,46.4,38,30.04,10.0,SW,10.4,-,N/A,,Clear,220,2013-07-25 22:55:00
7:15 PM,73.4,44.6,36,30.03,10.0,South,11.5,-,N/A,,Clear,180,2013-07-25 23:15:00
7:35 PM,71.6,44.6,38,30.03,10.0,South,6.9,-,N/A,,Clear,190,2013-07-25 23:35:00
7:55 PM,71.6,44.6,38,30.02,10.0,South,6.9,-,N/A,,Clear,170,2013-07-25 23:55:00
8:15 PM,69.8,44.6,40,30.02,10.0,South,5.8,-,N/A,,Clear,180,2013-07-26 00:15:00
8:35 PM,69.8,44.6,40,30.01,10.0,South,3.5,-,N/A,,Clear,180,2013-07-26 00:35:00
8:55 PM,69.8,44.6,40,30.02,10.0,South,4.6,-,N/A,,Clear,180,2013-07-26 00:55:00
9:15 PM,69.8,42.8,38,30.02,10.0,South,4.6,-,N/A,,Clear,170,2013-07-26 01:15:00
9:35 PM,68.0,41.0,37,30.02,10.0,SE,4.6,-,N/A,,Partly Cloudy,140,2013-07-26 01:35:00
9:55 PM,66.2,39.2,37,30.03,10.0,SSE,4.6,-,N/A,,Scattered Clouds,160,2013-07-26 01:55:00
10:15 PM,66.2,39.2,37,30.02,10.0,SSE,4.6,-,N/A,,Mostly Cloudy,160,2013-07-26 02:15:00
10:35 PM,66.2,42.8,43,30.02,10.0,SSE,4.6,-,N/A,,Overcast,150,2013-07-26 02:35:00
10:55 PM,66.2,42.8,43,30.02,10.0,SE,4.6,-,N/A,,Overcast,140,2013-07-26 02:55:00
11:15 PM,66.2,41.0,40,30.02,10.0,SE,4.6,-,N/A,,Overcast,140,2013-07-26 03:15:00
11:35 PM,66.2,41.0,40,30.01,10.0,SSE,6.9,-,N/A,,Mostly Cloudy,150,2013-07-26 03:35:00
11:55 PM,66.2,41.0,40,30.01,10.0,SSE,4.6,-,N/A,,Mostly Cloudy,150,2013-07-26 03:55:00